Date String (YYYY-MM-DD hh:mm:ss) UTC,Instrument flags,absolute air pressure of the measurement (hPa),sample flow rate (lpm),inlet stack bypass flow (lpm),air temperature of the measurement (°C),ambient temperature measured by the external sensor (°C),aerosol sample conditioner tube jacket temperature (°C),OPC LED temperature (°C),internal box temperature (°C),relative humidity of the measurement (%),span deviation,mass concentration of particles derived from Lorenz-Mie calculation of OPC scattering (μg/m³),mass concentration of particles derived from Lorenz-Mie calculation of OPC scattering (μg/m³),mass concentration of particles derived from Lorenz-Mie calculation of OPC scattering (μg/m³)
DateTimeUTC,F1_M11,P_M11,Q1_M11,Q2_M11,T1_M11,T2_M11,T3_M11,T4_M11,T5_M11,U1_M11,ZSPAN_M11,X2_M11,X0_M11,X1_M11
2024-01-29 23:00:00,SystemResetWarning,0835.7,5.00,000.00,025.9,022.8,000.0,034.0,026.9,13.6,0000.0,0001.76,0008.80,0001.20
2024-01-29 23:01:00,SystemResetWarning,0835.7,5.01,000.00,025.8,023.2,000.0,034.0,026.9,13.7,0000.0,0001.73,0009.27,0001.19
2024-01-29 23:02:00,SystemResetWarning,0835.6,5.00,000.00,025.8,023.5,000.0,034.0,027.0,13.7,0000.0,0001.71,0008.78,0001.17
2024-01-29 23:03:00,SystemResetWarning,0835.7,4.99,000.00,025.8,023.8,000.0,034.0,027.1,13.7,0000.0,0001.69,0007.94,0001.16
2024-01-29 23:04:00,SystemResetWarning,0835.7,5.00,000.00,025.8,024.1,000.0,034.0,027.2,13.7,0000.0,0001.69,0007.69,0001.16
2024-01-29 23:05:00,SystemResetWarning,0835.7,5.00,000.00,025.8,024.3,000.0,034.0,027.2,13.6,0000.0,0001.66,0007.30,0001.15
2024-01-29 23:06:00,SystemResetWarning,0835.7,5.00,000.00,025.9,024.5,000.0,034.0,027.3,13.7,0000.0,0001.60,0006.26,0001.14
2024-01-29 23:07:00,SystemResetWarning,0835.8,5.00,000.00,025.9,024.7,000.0,034.0,027.4,13.9,0000.0,0001.60,0006.59,0001.13
2024-01-29 23:08:00,SystemResetWarning,0835.8,4.99,000.00,025.9,024.9,000.0,034.0,027.5,13.8,0000.0,0001.56,0007.35,0001.11
2024-01-29 23:09:00,SystemResetWarning,0835.8,4.99,000.00,026.0,025.0,000.0,034.0,027.5,14.0,0000.0,0001.51,0005.42,0001.08
2024-01-29 23:10:00,SystemResetWarning,0835.8,5.00,000.00,026.0,025.1,000.0,034.0,027.6,14.0,0000.0,0001.45,0004.96,0001.06
2024-01-29 23:11:00,SystemResetWarning,0835.8,5.01,000.00,026.1,025.2,000.0,034.1,027.6,14.0,0000.0,0001.43,0004.86,0001.04
2024-01-29 23:12:00,SystemResetWarning,0835.8,5.00,000.00,026.1,025.3,000.0,034.1,027.6,14.0,0000.0,0001.42,0004.22,0001.03
2024-01-29 23:13:00,SystemResetWarning,0835.8,4.98,000.00,026.1,025.2,000.0,034.1,027.7,14.0,0000.0,0001.39,0003.66,0001.02
2024-01-29 23:14:00,SystemResetWarning,0835.8,4.99,000.00,026.1,023.6,000.0,034.1,027.6,14.1,0000.0,0001.38,0004.12,0001.02
2024-01-29 23:15:00,SystemResetWarning,0835.8,5.01,000.00,026.0,022.5,000.0,034.1,027.4,14.1,0000.0,0001.33,0004.14,0001.00
2024-01-29 23:16:00,SystemResetWarning,0835.8,5.01,000.00,025.9,022.6,000.0,034.1,027.0,14.1,0000.0,0001.32,0005.20,0000.98
2024-01-29 23:17:00,SystemResetWarning,0835.8,4.99,000.00,025.8,022.9,000.0,034.0,026.8,14.2,0000.0,0001.37,0005.80,0000.96
2024-01-29 23:18:00,SystemResetWarning,0835.8,5.00,000.00,025.8,023.3,000.0,034.0,026.9,14.3,0000.0,0001.37,0005.58,0000.95
2024-01-29 23:19:00,SystemResetWarning,0835.8,5.00,000.00,025.8,023.6,000.0,034.0,027.0,14.3,0000.0,0001.38,0004.70,0000.94
2024-01-29 23:20:00,SystemResetWarning,0835.8,4.99,000.00,025.8,023.9,000.0,034.0,027.1,14.3,0000.0,0001.35,0005.11,0000.93
2024-01-29 23:21:00,SystemResetWarning,0835.8,5.00,000.00,025.8,024.1,000.0,034.0,027.2,14.2,0000.0,0001.35,0005.19,0000.91
2024-01-29 23:22:00,SystemResetWarning,0835.8,5.00,000.00,025.8,024.4,000.0,034.0,027.3,14.2,0000.0,0001.38,0005.48,0000.89
2024-01-29 23:23:00,SystemResetWarning,0835.8,5.00,000.00,025.9,024.5,000.0,034.0,027.3,14.2,0000.0,0001.39,0005.37,0000.88
2024-01-29 23:24:00,SystemResetWarning,0835.8,5.00,000.00,025.9,024.7,000.0,034.0,027.4,14.1,0000.0,0001.41,0005.92,0000.88
2024-01-29 23:25:00,SystemResetWarning,0835.8,5.00,000.00,025.9,024.8,000.0,034.0,027.4,14.2,0000.0,0001.44,0005.62,0000.90
2024-01-29 23:26:00,SystemResetWarning,0835.8,4.99,000.00,026.0,024.9,000.0,034.0,027.5,14.2,0000.0,0001.45,0005.51,0000.93
2024-01-29 23:27:00,SystemResetWarning,0835.8,4.99,000.00,026.0,025.0,000.0,034.0,027.5,14.2,0000.0,0001.48,0004.78,0000.95
2024-01-29 23:28:00,SystemResetWarning,0835.8,5.00,000.00,026.0,025.1,000.0,034.1,027.5,14.1,0000.0,0001.51,0004.29,0000.99
2024-01-29 23:29:00,SystemResetWarning,0835.8,5.00,000.00,026.1,025.2,000.0,034.1,027.6,14.1,0000.0,0001.53,0005.74,0001.03
2024-01-29 23:30:00,SystemResetWarning,0835.8,5.00,000.00,026.1,025.3,000.0,034.1,027.6,14.1,0000.0,0001.58,0006.20,0001.06
2024-01-29 23:31:00,SystemResetWarning,0835.8,4.99,000.00,026.1,024.6,000.0,034.1,027.7,14.1,0000.0,0001.63,0006.06,0001.09
2024-01-29 23:32:00,SystemResetWarning,0835.8,5.01,000.00,026.1,022.8,000.0,034.1,027.4,14.2,0000.0,0001.65,0005.98,0001.12
2024-01-29 23:33:00,SystemResetWarning,0835.8,5.01,000.00,026.0,022.4,000.0,034.1,027.3,14.2,0000.0,0001.73,0007.44,0001.17
2024-01-29 23:34:00,SystemResetWarning,0835.8,4.99,000.00,025.8,022.7,000.0,034.1,026.9,14.3,0000.0,0001.80,0009.60,0001.22
2024-01-29 23:35:00,SystemResetWarning,0835.8,5.00,000.00,025.8,023.0,000.0,034.0,026.8,14.4,0000.0,0001.86,0009.43,0001.28
2024-01-29 23:36:00,SystemResetWarning,0835.8,5.00,000.00,025.7,023.4,000.0,034.0,026.9,14.4,0000.0,0001.97,0009.46,0001.38
2024-01-29 23:37:00,SystemResetWarning,0835.8,5.00,000.00,025.7,023.7,000.0,034.0,027.0,14.4,0000.0,0002.18,0009.78,0001.51
2024-01-29 23:38:00,SystemResetWarning,0835.8,5.01,000.00,025.8,024.0,000.0,034.0,027.1,14.4,0000.0,0002.37,0010.02,0001.65
2024-01-29 23:39:00,SystemResetWarning,0835.8,5.00,000.00,025.8,024.2,000.0,034.0,027.2,14.4,0000.0,0002.53,0010.39,0001.78
2024-01-29 23:40:00,SystemResetWarning,0835.8,5.00,000.00,025.8,024.4,000.0,034.0,027.3,14.3,0000.0,0002.64,0009.75,0001.89
2024-01-29 23:41:00,SystemResetWarning,0835.9,4.99,000.00,025.8,024.6,000.0,034.0,027.3,14.3,0000.0,0002.77,0009.64,0002.02
2024-01-29 23:42:00,SystemResetWarning,0835.9,5.00,000.00,025.9,024.7,000.0,034.0,027.4,14.2,0000.0,0002.91,0009.62,0002.15
2024-01-29 23:43:00,SystemResetWarning,0835.9,5.00,000.00,025.9,024.9,000.0,034.0,027.4,14.2,0000.0,0003.08,0009.87,0002.28
2024-01-29 23:44:00,SystemResetWarning,0835.9,5.00,000.00,025.9,025.0,000.0,034.0,027.4,14.2,0000.0,0003.13,0009.20,0002.39
2024-01-29 23:45:00,SystemResetWarning,0835.9,5.00,000.00,026.0,025.1,000.0,034.1,027.5,14.2,0000.0,0003.16,0006.87,0002.50
2024-01-29 23:46:00,SystemResetWarning,0835.9,4.99,000.00,026.0,025.1,000.0,034.1,027.5,14.2,0000.0,0003.21,0006.60,0002.59
2024-01-29 23:47:00,SystemResetWarning,0835.9,4.99,000.00,026.1,025.2,000.0,034.1,027.6,14.1,0000.0,0003.22,0006.61,0002.62
2024-01-29 23:48:00,SystemResetWarning,0835.9,4.99,000.00,026.1,025.2,000.0,034.1,027.6,14.1,0000.0,0003.21,0006.41,0002.62
2024-01-29 23:49:00,SystemResetWarning,0835.9,5.00,000.00,026.1,023.8,000.0,034.1,027.6,14.1,0000.0,0003.18,0006.39,0002.58
2024-01-29 23:50:00,SystemResetWarning,0835.8,5.02,000.00,026.0,022.5,000.0,034.1,027.4,14.1,0000.0,0003.18,0006.94,0002.55
2024-01-29 23:51:00,SystemResetWarning,0835.8,5.00,000.00,025.9,022.5,000.0,034.1,027.0,14.2,0000.0,0003.17,0006.81,0002.53
2024-01-29 23:52:00,SystemResetWarning,0835.8,5.00,000.00,025.8,022.8,000.0,034.0,026.8,14.3,0000.0,0003.16,0007.10,0002.49
2024-01-29 23:53:00,SystemResetWarning,0835.8,5.00,000.00,025.7,023.1,000.0,034.0,026.8,14.4,0000.0,0003.17,0007.68,0002.47
2024-01-29 23:54:00,SystemResetWarning,0835.8,5.00,000.00,025.7,023.5,000.0,034.0,026.9,14.4,0000.0,0003.15,0007.57,0002.44
2024-01-29 23:55:00,SystemResetWarning,0835.8,4.99,000.00,025.7,023.8,000.0,034.0,027.0,14.4,0000.0,0003.13,0007.60,0002.41
2024-01-29 23:56:00,SystemResetWarning,0835.8,4.99,000.00,025.7,024.0,000.0,033.9,027.1,14.3,0000.0,0003.13,0007.73,0002.38
2024-01-29 23:57:00,SystemResetWarning,0835.8,5.00,000.00,025.8,024.3,000.0,033.9,027.2,14.3,0000.0,0003.08,0008.44,0002.34
2024-01-29 23:58:00,SystemResetWarning,0835.8,4.99,000.00,025.8,024.5,000.0,034.0,027.2,14.3,0000.0,0003.04,0008.73,0002.31
2024-01-29 23:59:00,SystemResetWarning,0835.9,5.01,000.00,025.8,024.6,000.0,034.0,027.3,14.2,0000.0,0003.03,0008.73,0002.28
